This is the latest recevied weather packets stored in our database for station/object DG8SBT-13. If no packets are shown the sender has not sent any weather packets the latest 10 day(s).
| Time | Temp. | Humidity | Pressure | Rain* | Wind** | Luminosity | Snow |
|---|---|---|---|---|---|---|---|
| 1777916159 | 26.67° C | 27% | 1013.3 hPa | - | - | - | - |
| 1777914369 | 27.22° C | 29% | 1013.3 hPa | - | - | - | - |
| 1777912578 | 28.33° C | 27% | 1013.2 hPa | - | - | - | - |
| 1777910789 | 28.33° C | 27% | 1013.2 hPa | - | - | - | - |
| 1777908997 | 28.89° C | 27% | 1013.2 hPa | - | - | - | - |
| 1777907206 | 28.89° C | 28% | 1013.3 hPa | - | - | - | - |
| 1777905414 | 27.78° C | 29% | 1013.6 hPa | - | - | - | - |
| 1777903622 | 27.22° C | 30% | 1013.8 hPa | - | - | - | - |
| 1777901831 | 26.67° C | 30% | 1014 hPa | - | - | - | - |
| 1777900040 | 26.67° C | 30% | 1014.3 hPa | - | - | - | - |
| 1777898250 | 26.67° C | 29% | 1014.4 hPa | - | - | - | - |
| 1777896460 | 26.11° C | 30% | 1014.6 hPa | - | - | - | - |
| 1777894671 | 26.11° C | 30% | 1014.8 hPa | - | - | - | - |
| 1777892882 | 26.11° C | 30% | 1014.9 hPa | - | - | - | - |
| 1777891090 | 26.11° C | 31% | 1015.2 hPa | - | - | - | - |
| 1777889300 | 25.56° C | 31% | 1015.3 hPa | - | - | - | - |
| 1777887511 | 25° C | 31% | 1015.7 hPa | - | - | - | - |
| 1777885720 | 25° C | 32% | 1015.9 hPa | - | - | - | - |
| 1777883929 | 24.44° C | 32% | 1016.2 hPa | - | - | - | - |
| 1777882138 | 23.89° C | 33% | 1016.4 hPa | - | - | - | - |
| 1777880347 | 23.33° C | 33% | 1016.4 hPa | - | - | - | - |
| 1777878554 | 22.78° C | 33% | 1016.3 hPa | - | - | - | - |
| 1777876764 | 22.78° C | 32% | 1016.3 hPa | - | - | - | - |
| 1777874973 | 22.78° C | 32% | 1016.4 hPa | - | - | - | - |
| 1777873183 | 22.22° C | 33% | 1016.4 hPa | - | - | - | - |
* Rain since midnight (hover to see other rain measurements)
** Current wind speed in m/s (hover to see current wind gust speed)